This is the latest recevied weather packets stored in our database for station/object VE8SKI. If no packets are shown the sender has not sent any weather packets the latest 10 day(s).
| Time | Temp. | Humidity | Pressure | Rain* | Wind** | Luminosity | Snow |
|---|---|---|---|---|---|---|---|
| 1777948691 | 3.33° C | 75% | 1024.3 hPa | 0 mm | 0 m/s | - | - |
| 1777948391 | 3.89° C | 74% | 1024.2 hPa | 0 mm | 0 m/s | - | - |
| 1777948092 | 4.44° C | 73% | 1024.3 hPa | 0 mm | 0 m/s | - | - |
| 1777947789 | 4.44° C | 73% | 1024.3 hPa | 0 mm | 0 m/s | - | - |
| 1777947490 | 5° C | 74% | 1024.4 hPa | 0 mm | 0 m/s | - | - |
| 1777947190 | 5° C | 75% | 1024.5 hPa | 0 mm | 0 m/s | - | - |
| 1777946891 | 5° C | 76% | 1024.5 hPa | 0 mm | 0 m/s | - | - |
| 1777946591 | 4.44° C | 78% | 1024.5 hPa | 0 mm | 0 m/s | - | - |
| 1777946292 | 3.33° C | 79% | 1024.5 hPa | 0 mm | 0 m/s | - | - |
| 1777945989 | 2.22° C | 80% | 1024.5 hPa | 0 mm | 0 m/s | - | - |
| 1777945690 | 2.78° C | 76% | 1024.4 hPa | 0 mm | 0 m/s | - | - |
| 1777945390 | 3.33° C | 74% | 1024.3 hPa | 0 mm | 0 m/s | - | - |
| 1777945091 | 3.33° C | 73% | 1024.2 hPa | 0 mm | 0 m/s | - | - |
| 1777944791 | 3.33° C | 74% | 1024.1 hPa | 0 mm | 0 m/s | - | - |
| 1777944492 | 3.89° C | 73% | 1024.1 hPa | 0 mm | 0 m/s | - | - |
| 1777944189 | 3.89° C | 73% | 1024.1 hPa | 0 mm | 0 m/s | - | - |
| 1777943890 | 3.89° C | 72% | 1024 hPa | 0 mm | 0 m/s | - | - |
| 1777943590 | 3.89° C | 73% | 1024 hPa | 0 mm | 0 m/s | - | - |
| 1777943291 | 3.89° C | 72% | 1024 hPa | 0 mm | 0 m/s | - | - |
| 1777942991 | 3.89° C | 68% | 1024 hPa | 0 mm | 0 m/s | - | - |
| 1777942692 | 3.89° C | 68% | 1023.9 hPa | 0 mm | 0 m/s | - | - |
| 1777942389 | 4.44° C | 67% | 1023.9 hPa | 0 mm | 0 m/s | - | - |
| 1777942090 | 4.44° C | 66% | 1023.9 hPa | 0 mm | 0 m/s | - | - |
| 1777941790 | 4.44° C | 65% | 1024 hPa | 0 mm | 0 m/s | - | - |
| 1777941491 | 4.44° C | 65% | 1023.9 hPa | 0 mm | 0.89 m/s, 318° | - | - |
* Rain latest hour (hover to see other rain measurements)
** Current wind speed in m/s (hover to see current wind gust speed)